Погода в Кокшарке

Россия / Вологодская область     59°51′27″N   44°32′32″E
темп.,
°C
ветер,
м/с
пор.,
м/с
влажн.,
%
обл.,
%
осадки,
мм/ч
давл.,
гПа
погр.,
м
18 мая, вт
вт1800:00+13в258176 0.0 101978
03:00+11вюв3989100 0.0 1019190
06:00+14вюв41077100 0.0 1019286
09:00+20вюв475862 0.0 1018630
12:00+24юв464997 0.0 10181158
15:00+25юв4548100 0.0 10181330
18:00+23вюв486098 0.0 1017554
21:00+18юв4127654 0.0 1017332
19 мая, ср
ср1900:00+16юв4137683 0.0 1018366
03:00+15юв41378100 0.0 1018324
06:00+16юв4127139 0.0 1018346
09:00+22юв58515 0.0 1017617
12:00+26ююв574352 0.0 10171198
15:00+26ююв57405 0.0 10161624
18:00+24ююв48515 0.0 10161042
21:00+17юв312720 0.0 1016314
20 мая, чт
чт2000:00+16ююв413730 0.0 1016354
03:00+14ююв312830 0.0 1015280
06:00+17юв411740 0.0 1015336
09:00+23ююв59515 0.0 1014862
12:00+26ююв68368 0.0 10131786
15:00+26ююв69355 0.0 10122158
18:00+23ююв610450 0.0 10111480
21:00+19юв514594 0.0 1011714
21 мая, пт
пт2100:00+17ююв413682 0.0 1011518
03:00+14ююв311820 0.0 1011342
06:00+16ююв48780 0.0 1010391
09:00+20ю48684 0.8 10101125
12:00+19ю5771100 3.4 10091152
15:00+16ююв4987100 8.3 1009509
18:00+16ююз3787100 1.6 1008339
21:00+14з2592100 4.8 1009120
22 мая, сб
сб2200:00+12зсз3996100 1.3 1010353
03:00+10зсз3119548 1.3 1012360
06:00+12зсз38900 0.0 1014326
09:00+16з475156 0.0 10152007
12:00+18з68386 0.0 10162551
15:00+18з56355 0.0 10172205
18:00+17з36475 0.0 10181178
21:00+12зюз226375 0.0 101914